TimeMST,TemperatureF,Dew PointF,Humidity,Sea Level PressureIn,VisibilityMPH,Wind Direction,Wind SpeedMPH,Gust SpeedMPH,PrecipitationIn,Events,Conditions,WindDirDegrees,DateUTC
5:00 AM,24,10,40,30.02,15,WSW,11.5,,,,Scattered Clouds,250,2012-12-06 12:00:00
5:00 AM,24.8,8.6,50,30.02,15.0,WSW,11.5,-,N/A,,Mostly Cloudy,250,2012-12-06 12:00:00
6:00 AM,24.8,8.6,50,30.01,15.0,SW,9.2,-,N/A,,Mostly Cloudy,220,2012-12-06 13:00:00
7:00 AM,23.0,8.6,54,30.01,15.0,SW,8.1,-,N/A,,Mostly Cloudy,230,2012-12-06 14:00:00
8:00 AM,23.0,10.4,59,30.01,15.0,WSW,11.5,-,N/A,,Mostly Cloudy,250,2012-12-06 15:00:00
9:00 AM,21.2,10.4,63,30.01,30.0,WSW,6.9,-,N/A,,Mostly Cloudy,250,2012-12-06 16:00:00
10:00 AM,21.2,10.4,63,30.02,30.0,NNW,4.6,-,N/A,,Mostly Cloudy,330,2012-12-06 17:00:00
11:00 AM,26,11,40,30.02,28,Calm,Calm,,,,Scattered Clouds,,2012-12-06 18:00:00
11:00 AM,26.6,12.2,55,30.02,30.0,WNW,3.5,-,N/A,,Mostly Cloudy,290,2012-12-06 18:00:00
12:00 PM,26.6,12.2,55,29.99,30.0,NNW,3.5,-,N/A,,Mostly Cloudy,330,2012-12-06 19:00:00
1:00 PM,30.2,14.0,51,29.98,30.0,West,6.9,-,N/A,,Mostly Cloudy,280,2012-12-06 20:00:00
2:00 PM,28.4,12.2,51,29.97,30.0,WNW,9.2,-,N/A,,Mostly Cloudy,290,2012-12-06 21:00:00
3:00 PM,26.6,10.4,51,29.96,30.0,North,2.3,-,N/A,,Mostly Cloudy,350,2012-12-06 22:00:00
4:00 PM,19.4,8.6,63,29.96,30.0,SSE,5.8,-,N/A,,Mostly Cloudy,160,2012-12-06 23:00:00
5:00 PM,22,9,44,29.95,19,SSW,3.5,,,,Scattered Clouds,200,2012-12-07 00:00:00
5:00 PM,21.2,8.6,58,29.95,20.0,SSW,3.5,-,N/A,,Mostly Cloudy,200,2012-12-07 00:00:00
6:00 PM,19.4,8.6,63,29.95,15.0,ENE,4.6,-,N/A,,Mostly Cloudy,70,2012-12-07 01:00:00
7:00 PM,21.2,8.6,58,29.96,15.0,South,6.9,-,N/A,,Overcast,180,2012-12-07 02:00:00
8:00 PM,17.6,10.4,73,29.96,15.0,Calm,Calm,-,N/A,,Overcast,0,2012-12-07 03:00:00
9:00 PM,23.0,10.4,59,29.95,15.0,Calm,Calm,-,N/A,,Overcast,0,2012-12-07 04:00:00
10:00 PM,21.2,10.4,63,29.77,15.0,NW,5.8,-,N/A,,Mostly Cloudy,310,2012-12-07 05:00:00